Wind_Speed
36 38 40 42 44 46 48 51 52 53 53 56 56 57 56 56 53 52 49 47 44 49 51 56 55 53 50 52 49 51 58 55 46 39 34 38 37 33 31 31 35 36 41 43 46
35 34 36 40 42 45 49 52 54 55 57 57 57 58 58 57 54 52 53 45 44 49 54 55 57 56 56 50 54 52 56 55 42 42 41 40 40 35 32 32 35 38 39 36 42
40 41 40 40 41 45 48 51 55 57 59 60 60 60 60 60 56 57 50 44 44 49 54 57 57 60 59 56 50 53 55 48 45 46 46 44 45 39 33 34 33 38 37 36 39
43 46 47 48 50 51 50 55 59 61 63 62 63 63 62 61 58 53 48 46 45 49 55 58 58 59 62 58 51 53 50 48 45 50 49 46 47 44 36 33 37 37 38 39 40
46 48 49 51 53 54 56 59 62 63 63 65 65 65 64 58 48 56 53 49 47 48 53 58 62 59 59 58 58 60 52 47 47 50 51 49 52 46 42 37 38 39 40 42 44
50 50 53 55 56 55 54 58 59 60 60 63 65 63 61 50 50 51 53 49 47 47 51 56 58 59 60 57 58 56 57 53 48 52 53 52 56 51 44 40 39 41 39 40 43
54 54 56 60 60 59 54 54 55 58 62 65 66 67 62 47 51 49 48 50 47 46 48 53 57 59 60 61 58 60 61 59 52 50 55 56 61 58 48 46 42 43 42 42 39
54 59 61 62 61 61 61 57 54 59 65 67 67 65 63 49 48 47 46 45 47 47 47 52 56 59 57 56 59 60 61 63 55 53 56 61 65 58 52 49 44 45 46 42 38
59 63 67 67 65 61 60 58 54 59 65 66 67 64 59 52 45 43 43 43 42 44 46 49 53 53 51 51 54 57 59 61 60 60 62 67 68 59 56 53 48 48 48 43 40
68 67 68 68 68 64 60 55 55 58 63 65 65 63 56 53 46 41 37 39 41 42 46 48 51 50 49 50 55 52 54 57 65 63 68 70 73 65 59 58 53 51 51 46 44
71 71 70 71 71 64 60 59 58 57 56 63 64 62 54 50 43 42 42 38 38 43 46 47 50 53 47 42 43 47 49 57 60 58 69 75 75 71 62 62 58 52 53 50 47
72 71 72 71 72 65 60 58 57 56 55 60 61 59 54 50 46 42 40 40 39 41 44 46 54 46 41 48 45 49 50 55 59 61 69 77 80 76 68 65 61 58 55 52 49
74 72 70 71 68 58 58 58 60 62 62 60 62 63 55 47 43 40 37 38 40 42 40 46 51 43 48 49 50 50 53 54 61 60 69 76 82 78 72 69 65 60 57 56 53
77 77 76 71 60 53 51 58 60 63 65 65 62 57 50 45 45 42 41 42 43 43 43 50 47 49 51 55 52 56 53 55 62 58 72 71 84 80 76 72 69 66 61 60 58
80 80 77 62 53 47 52 56 59 68 67 62 56 52 47 44 44 44 40 44 43 46 51 53 52 49 53 55 54 59 52 59 63 62 69 76 72 80 77 77 70 68 64 61 58
84 81 76 62 47 51 51 54 60 65 64 57 50 43 40 38 35 38 39 41 40 43 51 55 49 52 55 60 62 57 57 59 62 65 70 75 78 76 75 82 69 69 68 64 62
88 84 77 60 50 46 50 54 61 60 55 51 44 37 33 32 36 36 36 38 39 43 48 48 48 49 52 54 58 60 62 60 64 62 74 69 80 79 73 80 74 68 70 67 61
86 82 74 70 47 48 52 50 58 54 50 44 38 33 29 30 28 29 37 41 35 40 47 45 44 43 48 54 53 59 63 66 60 77 53 63 76 82 69 74 76 66 69 67 63
87 82 80 54 48 47 46 51 51 50 44 39 35 33 30 24 25 27 34 45 33 37 42 39 39 38 39 48 49 54 65 54 62 47 68 45 68 74 61 69 79 70 64 67 67
85 81 76 55 49 47 46 47 49 41 39 36 34 33 25 25 25 25 32 41 35 32 29 31 35 33 32 45 50 53 58 65 57 51 51 54 46 67 71 63 74 75 64 57 59
88 82 69 55 44 43 46 49 41 35 38 37 32 28 27 26 23 25 30 31 33 27 15 21 34 33 30 39 44 51 59 65 49 62 33 49 56 57 59 69 62 70 67 57 49
87 79 68 48 46 49 47 41 36 34 37 36 34 33 29 26 24 25 27 29 30 29 20 20 28 34 35 34 44 52 56 65 48 34 61 37 38 47 53 66 59 61 51 52 49
82 72 63 50 51 53 54 49 38 35 34 39 39 34 28 27 28 24 24 28 27 26 19 17 18 26 31 36 47 45 51 63 75 47 30 46 47 28 36 55 52 48 54 48 51
84 77 57 50 43 34 33 32 38 32 35 39 32 28 31 33 29 24 27 32 24 24 20 25 22 15 20 29 42 56 46 55 64 67 49 52 47 46 27 30 47 46 44 50 44
81 70 61 46 28 32 33 34 38 44 40 36 30 32 32 32 29 27 27 29 24 24 27 26 25 26 25 32 43 40 47 44 59 61 58 52 53 45 39 30 28 43 40 37 38
75 62 53 45 29 29 29 36 39 42 34 34 38 31 29 29 31 22 27 28 26 27 23 32 30 30 25 27 33 46 46 24 54 67 56 55 53 51 41 31 23 24 40 39 37
79 60 46 48 28 37 35 36 41 35 30 36 33 31 28 34 24 21 27 31 30 26 30 29 26 30 32 28 30 40 51 30 36 49 65 59 35 41 51 51 33 38 41 39 44
Wind_Direction
315 314 313 310 306 304 301 298 295 294 294 292 292 289 288 286 283 281 281 276 264 256 256 256 253 254 252 244 241 243 242 238 237 241 239 246 245 243 245 244 238 232 229 227 222
317 315 315 310 306 304 301 298 295 293 293 292 290 290 289 286 282 278 277 275 258 251 254 251 251 251 251 247 244 240 242 241 240 239 237 242 244 242 242 243 240 232 233 226 225
318 315 313 311 311 306 301 298 296 295 292 291 290 288 285 284 280 276 277 272 259 250 247 250 248 248 250 248 248 245 243 242 240 238 236 237 241 242 237 241 239 235 232 229 224
321 322 319 317 314 311 309 303 300 297 294 292 289 287 285 281 283 279 272 265 256 246 245 248 248 245 247 248 245 247 245 242 239 238 235 234 240 239 236 236 233 232 227 221 220
322 321 323 321 319 314 308 305 301 297 294 289 287 287 286 283 283 277 270 264 256 248 243 245 247 246 245 245 243 245 245 243 238 236 235 232 235 237 236 233 231 231 226 217 215
323 320 320 321 319 313 306 304 301 297 294 290 291 290 290 293 277 271 269 264 258 249 243 241 244 245 244 243 244 246 245 245 242 236 235 233 233 232 233 232 230 228 225 219 220
322 320 319 319 318 316 310 306 303 298 295 293 294 293 295 291 281 270 265 262 257 250 243 240 243 242 244 242 242 246 247 246 243 242 238 236 231 230 229 231 225 226 227 222 220
323 322 322 321 321 318 314 310 303 297 294 294 296 295 298 293 281 274 269 261 258 253 244 242 239 242 242 244 242 242 244 246 241 247 241 239 229 230 228 232 228 226 226 221 217
328 327 325 324 323 318 313 308 302 294 294 294 294 296 297 294 284 276 269 263 258 254 249 240 240 241 242 243 242 241 246 250 250 252 248 240 235 228 226 228 225 223 225 221 213
329 327 322 319 320 316 310 304 297 293 290 293 294 295 294 292 287 283 270 257 255 248 244 240 243 243 239 239 246 257 257 258 260 252 249 237 238 228 224 226 227 222 222 220 214
327 324 321 320 317 315 308 302 295 290 288 293 295 294 297 290 288 284 274 266 262 258 250 246 245 245 251 259 262 259 258 259 257 243 237 234 235 231 223 225 224 221 222 220 216
324 323 321 318 317 312 305 297 293 289 285 290 293 300 297 294 291 286 278 272 264 254 253 253 253 255 257 249 248 250 253 254 253 241 236 232 232 230 223 222 222 221 219 220 219
326 323 319 316 314 310 301 295 291 288 288 287 292 300 300 301 298 292 284 275 268 263 259 260 258 256 250 249 248 250 251 249 245 241 232 232 232 228 223 222 220 219 219 218 218
327 325 322 321 316 302 295 292 290 289 289 291 296 299 300 300 300 294 287 282 277 274 274 268 265 260 252 247 246 247 250 244 239 238 235 230 231 227 223 222 219 217 217 217 216
327 324 325 323 318 304 296 289 288 292 293 294 300 302 300 302 302 296 289 287 284 281 279 275 273 260 248 252 244 247 235 239 237 236 240 231 237 222 226 223 219 217 215 217 218
328 326 327 328 317 308 293 288 291 291 291 298 303 303 301 301 297 295 293 291 294 291 282 280 272 259 251 245 234 231 230 235 234 227 231 235 231 228 226 221 219 216 218 216 215
328 327 327 327 322 301 290 288 289 288 296 301 301 299 299 299 302 302 301 300 301 295 283 270 259 249 245 238 233 224 221 224 234 226 239 235 232 229 224 223 222 220 218 219 216
329 329 331 333 313 299 288 287 288 293 298 299 297 297 299 303 307 312 314 311 300 284 276 265 255 247 239 233 225 223 218 220 228 224 238 238 231 225 224 227 222 223 222 220 221
329 331 331 326 306 291 286 287 291 297 296 295 295 293 299 302 304 313 323 325 299 280 274 266 257 235 237 225 225 217 219 214 235 235 236 234 234 229 224 225 224 222 225 222 220
331 331 334 318 303 292 289 290 296 297 295 295 291 294 295 290 303 312 326 326 300 292 275 259 252 230 232 227 218 217 215 218 218 222 233 229 238 231 224 224 224 223 223 226 227
331 330 328 315 299 288 289 295 297 296 296 294 288 294 291 290 298 307 327 319 307 298 261 256 250 233 230 225 216 219 220 222 227 231 208 227 225 232 231 228 221 226 227 230 233
332 328 326 307 289 287 291 297 299 303 301 300 287 292 294 291 292 295 318 316 307 298 253 249 250 240 232 227 218 219 219 218 214 229 215 213 225 229 229 229 227 225 222 225 225
332 326 321 300 289 286 287 298 301 301 301 298 298 289 285 285 285 294 307 310 303 285 264 233 234 251 244 232 220 222 219 224 221 218 213 206 206 204 222 226 223 226 228 223 230
331 325 319 307 298 296 294 295 292 301 299 294 293 292 291 288 282 302 302 302 293 286 235 221 228 227 241 222 223 223 213 220 228 230 224 215 199 211 210 201 215 219 221 223 228
329 323 319 313 305 292 294 294 298 296 297 285 292 295 287 286 287 303 303 290 293 281 238 226 229 230 230 237 232 228 219 207 209 221 224 219 217 212 224 212 200 215 209 212 216
323 318 312 305 284 293 292 304 293 298 289 290 294 288 284 295 288 296 302 298 287 279 261 248 247 224 225 238 244 235 230 211 204 215 217 204 203 204 206 218 214 203 211 202 201
329 317 301 310 283 278 281 296 303 280 284 288 291 304 296 293 286 297 300 298 285 271 257 255 260 253 223 238 240 245 235 223 191 214 220 221 206 215 213 210 180 182 168 183 204
Height
5797 5792 5787 5781 5775 5770 5765 5760 5754 5749 5744 5740 5735 5731 5727 5725 5724 5721 5723 5722 5723 5724 5725 5727 5731 5733 5736 5739 5740 5743 5743 5750 5762 5767 5772 5769 5770 5772 5774 5775 5775 5776 5778 5778 5786
5791 5786 5780 5775 5769 5763 5757 5750 5744 5739 5734 5728 5722 5719 5715 5711 5708 5707 5709 5710 5711 5713 5714 5716 5718 5720 5723 5727 5729 5731 5733 5744 5754 5756 5760 5760 5762 5765 5767 5768 5770 5770 5773 5777 5781
5785 5779 5774 5767 5760 5754 5746 5739 5733 5727 5721 5715 5710 5705 5701 5697 5693 5691 5694 5696 5697 5698 5700 5701 5704 5706 5711 5716 5721 5722 5724 5734 5742 5744 5748 5752 5753 5758 5761 5762 5765 5766 5767 5772 5776
5777 5770 5764 5757 5751 5744 5736 5729 5722 5716 5709 5702 5696 5690 5686 5682 5680 5679 5680 5680 5681 5683 5685 5687 5689 5693 5697 5705 5709 5707 5715 5722 5730 5732 5737 5742 5747 5749 5754 5757 5756 5759 5760 5763 5769
5769 5762 5755 5748 5742 5734 5726 5717 5710 5703 5695 5687 5680 5675 5671 5669 5671 5661 5661 5664 5666 5670 5672 5674 5675 5679 5686 5691 5692 5696 5706 5710 5716 5720 5725 5731 5735 5742 5746 5749 5751 5753 5752 5756 5761
5760 5753 5745 5739 5731 5723 5715 5706 5697 5689 5682 5674 5666 5658 5654 5658 5651 5646 5643 5649 5650 5655 5658 5661 5664 5664 5670 5675 5680 5689 5690 5696 5704 5710 5714 5720 5724 5732 5739 5742 5745 5747 5749 5751 5755
5748 5741 5733 5725 5716 5708 5700 5691 5682 5673 5665 5657 5649 5641 5639 5639 5633 5632 5632 5632 5636 5640 5644 5646 5649 5650 5658 5661 5672 5671 5673 5680 5693 5703 5705 5709 5712 5719 5731 5732 5736 5740 5743 5745 5749
5739 5729 5721 5712 5703 5694 5685 5678 5671 5661 5649 5641 5632 5626 5623 5622 5619 5617 5619 5621 5622 5625 5631 5630 5632 5636 5643 5649 5651 5653 5657 5662 5689 5690 5696 5697 5702 5713 5721 5725 5731 5734 5736 5739 5742
5728 5717 5705 5695 5686 5679 5670 5662 5655 5646 5635 5625 5617 5611 5610 5609 5607 5605 5605 5606 5610 5611 5615 5616 5616 5623 5630 5633 5634 5636 5644 5655 5671 5679 5683 5683 5692 5704 5708 5714 5720 5725 5729 5734 5736
5710 5702 5690 5680 5671 5664 5654 5646 5638 5630 5620 5609 5603 5599 5600 5595 5593 5592 5591 5590 5592 5597 5601 5602 5602 5606 5611 5615 5617 5634 5637 5646 5650 5671 5667 5673 5674 5690 5696 5701 5710 5716 5721 5727 5731
5698 5685 5673 5663 5653 5646 5637 5630 5621 5613 5610 5595 5588 5586 5582 5581 5582 5579 5577 5580 5581 5583 5585 5587 5584 5592 5609 5611 5616 5615 5620 5627 5635 5647 5646 5654 5659 5673 5685 5688 5698 5707 5713 5718 5724
5683 5671 5658 5648 5637 5628 5620 5611 5603 5595 5591 5583 5575 5570 5571 5568 5569 5567 5567 5567 5568 5573 5569 5571 5571 5591 5593 5589 5593 5598 5604 5613 5621 5628 5632 5638 5643 5654 5668 5676 5686 5695 5703 5711 5717
5670 5656 5642 5630 5620 5611 5602 5593 5584 5576 5571 5572 5563 5559 5556 5556 5554 5555 5555 5554 5555 5558 5558 5556 5569 5568 5566 5573 5577 5583 5590 5602 5607 5615 5618 5622 5624 5636 5656 5663 5672 5684 5694 5700 5707
5655 5641 5628 5617 5605 5595 5585 5576 5568 5559 5554 5554 5555 5550 5545 5541 5543 5541 5541 5541 5543 5544 5540 5540 5550 5547 5550 5552 5564 5566 5583 5589 5595 5602 5601 5609 5609 5623 5640 5650 5660 5671 5682 5691 5697
5641 5625 5610 5598 5588 5579 5571 5562 5554 5547 5541 5540 5537 5535 5533 5531 5530 5529 5529 5524 5526 5528 5524 5527 5525 5531 5530 5539 5550 5553 5572 5576 5583 5588 5592 5595 5594 5612 5622 5634 5646 5662 5673 5681 5691
5625 5609 5596 5585 5575 5565 5557 5549 5542 5538 5530 5527 5524 5523 5521 5519 5518 5519 5516 5513 5512 5509 5509 5503 5511 5509 5516 5523 5528 5545 5555 5563 5569 5573 5566 5576 5584 5594 5607 5629 5642 5650 5660 5670 5680
5607 5592 5578 5568 5560 5552 5545 5538 5532 5525 5519 5515 5512 5509 5509 5508 5508 5505 5504 5500 5494 5488 5490 5488 5491 5495 5499 5505 5515 5527 5539 5543 5548 5552 5551 5570 5570 5578 5604 5616 5628 5641 5650 5660 5671
5589 5576 5563 5552 5544 5538 5532 5526 5519 5515 5510 5503 5502 5499 5498 5497 5496 5493 5489 5487 5482 5475 5471 5471 5476 5483 5490 5490 5502 5514 5525 5530 5537 5543 5550 5558 5546 5565 5595 5605 5618 5628 5636 5649 5660
5574 5561 5548 5536 5529 5523 5520 5513 5510 5506 5498 5494 5491 5489 5488 5486 5484 5482 5478 5474 5469 5465 5461 5461 5463 5470 5474 5484 5493 5507 5507 5526 5533 5534 5538 5546 5555 5571 5584 5590 5599 5613 5625 5637 5647
5556 5544 5535 5523 5516 5511 5507 5506 5501 5495 5487 5484 5482 5481 5479 5475 5473 5470 5469 5464 5460 5456 5453 5454 5453 5462 5469 5473 5483 5489 5509 5510 5517 5525 5527 5539 5544 5553 5567 5578 5593 5603 5615 5628 5636
5547 5531 5522 5511 5505 5503 5500 5496 5491 5486 5480 5477 5474 5472 5471 5468 5465 5463 5461 5458 5454 5450 5448 5448 5447 5457 5461 5466 5479 5486 5491 5497 5506 5516 5518 5531 5537 5552 5561 5568 5584 5596 5608 5618 5623
5534 5521 5507 5497 5495 5492 5489 5484 5482 5476 5471 5469 5467 5463 5461 5459 5459 5456 5454 5450 5447 5444 5444 5444 5442 5446 5453 5460 5465 5472 5482 5489 5493 5503 5513 5527 5541 5545 5551 5563 5577 5587 5593 5599 5607
5518 5506 5496 5489 5486 5481 5477 5474 5472 5467 5463 5460 5457 5455 5453 5453 5451 5450 5446 5444 5441 5438 5437 5440 5440 5441 5448 5453 5458 5463 5471 5476 5481 5488 5504 5519 5531 5537 5543 5554 5567 5575 5582 5593 5601
5508 5495 5486 5477 5472 5469 5466 5466 5462 5459 5455 5451 5449 5447 5445 5445 5442 5442 5440 5436 5433 5432 5432 5431 5432 5435 5439 5441 5443 5449 5459 5468 5474 5481 5493 5506 5524 5534 5540 5548 5558 5568 5575 5585 5595
5496 5482 5473 5466 5463 5461 5459 5458 5455 5451 5448 5441 5442 5439 5436 5436 5435 5433 5431 5429 5427 5425 5425 5423 5426 5428 5431 5433 5434 5440 5448 5456 5463 5476 5485 5504 5513 5527 5538 5545 5552 5560 5571 5581 5590
5480 5472 5460 5458 5453 5453 5449 5450 5446 5442 5438 5434 5433 5431 5429 5429 5427 5427 5421 5422 5420 5418 5419 5418 5419 5420 5424 5428 5430 5434 5441 5444 5451 5467 5481 5495 5502 5518 5529 5540 5549 5555 5565 5575 5583
5466 5455 5448 5445 5445 5442 5443 5442 5436 5431 5431 5427 5424 5423 5421 5420 5420 5419 5416 5414 5412 5411 5411 5411 5412 5413 5421 5421 5425 5432 5436 5442 5448 5459 5474 5482 5508 5517 5522 5533 5541 5546 5553 5564 5574